Orbital elements:
    C/2006 V1 (Catalina)
Epoch 2007 Dec. 6.0 TT = JDT 2454440.5
T 2007 Nov. 26.54598 TT                                 MPC
q   2.6747715            (2000.0)            P               Q
z  +0.0038330      Peri.  253.41389     -0.59756071     +0.77315270
 +/-0.0000019      Node   335.72190     -0.38148328     -0.50723939
e   0.9897477      Incl.   31.11933     -0.70526003     -0.38071395
Residuals in seconds of arc
061111 703  1.5-  0.3+    070217 703  1.9-  1.5-    070409 A24  0.7+  0.8-
061111 703  0.1-  0.8+    070217 703  0.5-  0.3-    070409 A24  1.2+  1.3-
061111 703  0.5-  0.9+    070217 H45  1.7-  0.3+    070409 A24  1.3+  1.8-
061111 703  0.3-  0.7+    070217 H45  0.3-  0.2+    070409 A24  1.6+  1.7-
061112 204  0.2-  0.0     070217 H45  0.0   0.1-    070409 A24  1.2+  1.4-
061112 204  0.0   0.4+    070217 H45  0.2+  0.1-    070409 A24  0.8+  0.8-
061112 G96  0.4-  0.2-    070217 644  0.1-  0.2-    070409 A24  0.1-  0.3+
061112 G96  0.2-  0.2-    070217 644  0.1+  0.7-    070409 A24  0.1+  0.4+
061112 G96  0.1+  0.3-    070217 644  0.1-  0.0     070410 704 (3.0+  1.5+)
061112 G96  0.3-  0.0     070218 361  1.1-  0.4+    070410 704  0.4-  0.6-
061112 703  0.7-  0.0     070218 361  0.3+  1.9-    070410 704 (2.0-  0.2+)
061112 703  0.5-  0.8+    070218 361  0.3-  0.5+    070410 415  0.2-  0.3-
061112 703  0.7+  0.6+    070218 A50  0.1-  0.3-    070410 415  0.1-  0.2-
061112 703  0.2+  0.0     070218 A50  0.1-  0.3-    070410 J59  0.4-  0.1-
061112 703  0.8-  0.4+    070221 349  0.3+  0.0     070410 J59  0.0   0.2-
061112 703  0.1+  1.0-    070221 349  0.3+  0.1-    070410 J59  0.1-  1.3-
061112 703  0.8+  1.3+    070221 372  1.1-  0.1-    070410 A24  0.0   0.3+
061112 703  1.0-  0.8+    070221 349  0.3+  0.1-    070410 A24  0.1-  0.4+
061112 G96  0.1-  0.8-    070221 372  0.5-  0.5+    070411 138  0.3+  0.5+
061112 G96  0.1+  0.4-    070222 691  0.8-  0.4+    070411 138  0.2-  0.1-
061112 G96  0.4+  0.6-    070222 691  0.7-  0.4+    070411 138  0.7+  0.4+
061112 G96  0.2+  0.3-    070222 691  1.2-  0.7+    070411 215  0.0   0.1-
061113 448  0.6+  0.1+    070222 704 (2.7+  0.9+)   070411 215  0.0   0.1-
061113 448  0.4+  0.5-    070222 704  1.0+  0.2+    070411 215  0.1+  0.0
061113 448  0.3+  0.5-    070222 704  0.5+  1.4+    070411 A24  0.0   0.2-
061113 G96  1.0-  0.3-    070222 704  0.8+  1.3+    070411 A24  0.2-  0.0
061113 G96  0.1-  0.2-    070222 704  0.5-  0.4-    070411 A24  0.1-  0.1-
061113 G96  0.3-  0.2+    070223 D88  0.6+  0.8-    070411 A24  0.1-  0.1-
061113 G96  0.6-  0.0     070223 D88  0.4+  0.2-    070411 A24  0.3-  0.1-
061113 G96  0.1-  0.3+    070223 D88  0.6+  0.2-    070411 A24  0.1+  0.5-
061113 G96  0.2-  0.0     070223 A77 (1.6+  3.0+)   070411 A24  0.3-  0.0
061113 G96  0.9-  0.3+    070223 A77 (3.0+  3.1-)   070412 A24  0.4-  0.1-
061115 673  0.7+  0.1+    070223 A77 (2.2-  8.8-)   070412 A24  0.8-  0.2+
061115 673  0.1-  0.5-    070223 A77  0.0   1.5+    070412 A24  0.1-  0.3+
061115 673  0.1+  0.0     070224 704 (2.1+  0.4+)   070412 H47  0.4+  0.0
061115 673  0.3+  0.2-    070224 704  0.6+  0.5-    070412 H47  0.4-  0.5+
061115 G96  0.5+  0.9-    070224 704  0.9+  0.6+    070412 561  0.4-  0.1+
061115 G96  0.2+  1.0-    070224 704  0.8+  0.2-    070412 561  0.2-  0.1+
061115 G96  0.3+  0.8-    070224 704  2.0-  0.9+    070412 561  0.2-  0.0
061115 G96  0.0   1.1-    070226 D88  0.1+  0.6+    070413 048  0.7+  1.0+
061115 349  0.8+  0.1+    070226 D88  0.0   0.5+    070413 048  0.4+  0.3+
061115 349  0.6+  0.1+    070226 D88  0.8+  0.2+    070413 048  0.0   0.0
061115 349  0.8+  0.1-    070301 349  0.9+  0.1+    070413 048  0.5+  0.2+
061119 704  0.4+  0.2+    070301 349  1.0+  0.3+    070413 048  0.1-  0.1+
061119 704  0.4+  0.9+    070301 349  0.9+  0.3+    070414 J70 (5.1+  3.6-)
061119 704  1.3-  1.1+    070303 232  0.3-  0.3-    070414 J70  0.9+  0.5-
061119 691  0.0   0.2+    070303 232  0.8+  0.6-    070414 E26  0.3-  0.1-
061119 691  0.1+  0.0     070304 232  0.2+  0.4-    070414 D88  0.1+  0.1+
061119 691  0.0   0.2+    070307 355  0.2-  0.1+    070414 D88  0.4+  0.1+
061121 G96  0.1+  0.1-    070307 355  0.1-  0.1+    070414 D88  0.1+  0.3+
061121 G96  0.0   0.4-    070307 355  0.1-  0.0     070414 E26  0.6-  0.9+
061121 G96  0.0   0.2-    070308 644  0.1+  0.0     070414 561  0.0   0.2+
061121 G96  0.1+  0.3-    070308 644  0.0   0.0     070414 561  0.2-  0.1+
061122 704  0.7-  1.1+    070308 644  0.0   0.1-    070414 561  0.4-  0.1-
061122 704  0.1-  0.2+    070308 D88  0.9-  0.2-    070415 415  0.8-  0.1-
061122 704  0.3+  0.3+    070308 D88  0.5-  0.1+    070415 415  0.6-  0.2-
061122 704  0.2+  0.5+    070308 D88  0.2-  0.1-    070415 D88  0.1+  0.1+
061122 704  0.1+  0.7+    070309 644  0.4-  0.2-    070415 D88  0.5+  0.4-
061126 691  0.4-  0.4+    070309 644  0.3-  0.1-    070415 D88  0.0   0.1+
061126 691  0.5-  0.2+    070309 644  0.1-  0.0     070416 H47  0.2+  0.5+
061126 691  0.7-  0.4+    070309 703  1.0-  0.9+    070416 H47  0.1+  0.0
061211 118  0.5+  0.5+    070309 703  0.2-  1.0+    070416 J70  0.6+  0.2+
061211 118  0.5+  0.4+    070309 703  0.0   0.8+    070416 J70  0.7+  0.0
061211 118  0.2+  0.3+    070309 703  0.8-  1.6+    070416 J70  1.0+  0.4+
061215 215  0.1-  0.0     070309 400  0.0   0.4-    070420 585  0.7+  0.3+
061215 215  0.2-  0.2+    070309 400  0.1-  0.2-    070420 585  0.2-  0.3-
061215 215  0.4-  0.5+    070309 400  0.1+  0.1+    070420 585  0.3-  0.1+
061215 704  0.4-  1.8+    070309 400  0.5+  0.0     070420 585  1.1+  0.9+
061215 704 (2.1+  1.4+)   070309 B30  0.1-  0.4+    070421 J52  0.3-  0.2+
061215 704 (2.4+  0.5-)   070309 B30  0.0   0.3-    070421 J52  0.6+  0.3-
061215 704  1.3+  1.0-    070310 644  0.5-  0.3-    070421 J52  0.4+  0.2-
061216 246  0.3+  0.4-    070310 644  0.0   0.0     070422 H47  0.1-  0.2-
061216 246  0.3+  0.3-    070310 644  0.2-  0.3-    070422 H47  0.1+  0.3+
061216 246  0.4+  0.7-    070310 644  0.3-  0.0     070423 213  0.3+  0.1-
061216 246  0.2+  0.5-    070310 644  0.3-  0.1-    070423 213  0.3-  0.0
061216 246  0.0   0.3+    070310 644  0.2-  0.1+    070423 213  0.2-  0.9+
061216 246  0.6+  0.5-    070310 J59 (0.7-  2.9+)   070423 J67  0.1+  0.4-
061216 246  0.5+  0.1-    070310 J59  0.6+  0.3+    070423 J67  0.1+  0.1-
061217 704  0.6+  0.5+    070310 J59  0.8-  0.2+    070423 J67  0.5-  0.2-
061217 704  0.7+  0.4+    070311 B30  1.2+  0.5-    070423 J70 (1.1-  3.4-)
061217 704  1.3+  0.1+    070311 B30  0.0   0.2-    070423 J70  0.1+  0.3-
061217 704  1.2+  1.7-    070311 232  0.8-  0.4-    070423 J70  0.3+  0.6-
061217 704  1.3+  1.9-    070311 232  0.8-  0.1-    070423 J70  0.3+  0.5-
061222 130  0.2-  0.2-    070311 232  0.5-  0.4-    070428 349  0.8+  0.7-
061222 130  0.2-  0.2+    070311 349  0.4+  0.0     070428 349  0.8+  0.7-
061222 130  0.0   0.6-    070311 349  0.5+  0.0     070429 D88  0.8+  0.3+
061222 704  0.6+  1.3+    070311 349  0.3+  0.2-    070429 D88  0.7+  0.5+
061222 704  1.9+  0.2-    070311 939  0.4+  0.0     070429 D88  0.6+  0.4+
061222 704  1.4+  1.0+    070311 939  0.2+  0.2+    070429 213  0.4-  0.2+
061222 704  1.0+  1.0+    070311 939  0.1-  0.2+    070429 213  0.7-  0.2+
061222 704  1.6+  0.7-    070311 J53  0.1+  0.2-    070429 213  0.2-  0.2-
061222 349  0.4+  0.6-    070311 J53  0.3-  0.0     070430 H47  0.1+  0.2+
061222 349  0.1+  0.8-    070311 J53  0.6-  0.5-    070430 H47  0.1+  0.8-
061222 349  0.0   1.1-    070312 A82  0.1-  0.1+    070505 H47  0.3+  0.3+
061225 J70 (4.6+  8.3-)   070312 A82  0.0   0.0     070505 H47  0.5+  0.4+
061225 J70 (6.2+  0.7+)   070312 A82  0.5-  0.1-    070505 939  0.3+  0.1+
061225 J70 (8.5+  4.6-)   070312 A82  0.3-  0.1-    070505 939  0.2+  0.0
061227 A79  1.7+  1.1-    070312 A82  0.0   0.0     070505 939  0.1+  0.0
061227 A79  0.7+  0.3-    070312 A82  0.1-  0.2-    070505 J67  0.5-  0.6-
061227 A79  2.0+  0.9-    070312 A82  0.1+  0.3-    070505 J67  0.3-  0.1-
061227 118  0.0   0.0     070313 D88  0.9+  0.2-    070505 J67  0.9+  0.2+
061227 118  0.3-  0.2-    070313 D88  0.4+  0.3+    070505 232  0.1-  0.8-
061227 118  0.4+  0.4-    070313 D88  0.6+  0.0     070505 232  0.1-  0.7-
061227 G96  0.8-  0.1+    070314 415  0.0   0.4-    070505 232  0.5-  0.2+
061227 G96  0.6-  0.0     070314 415  0.1-  0.6-    070506 H47  0.3+  0.1-
061227 G96  0.9-  0.2+    070314 203  0.7-  0.1-    070506 H47  0.2+  0.2+
061227 G96  1.3-  0.3+    070314 B30  0.7+  0.3-    070506 458  1.0+  0.0
061230 232  0.3+  0.1+    070314 B30  0.6-  0.6+    070506 458  0.6-  0.8-
061230 232  0.1+  0.1+    070314 B30  1.1-  0.0     070507 D88  0.5+  0.3-
061230 232  0.1+  0.1+    070314 203  0.1-  0.1+    070507 D88  0.4+  0.1-
061230 372  0.4+  0.7+    070315 704  1.9+  1.6+    070507 D88  0.6+  0.5-
061231 170  0.4-  0.3-    070315 703  0.4-  1.0+    070507 J76  0.1-  0.1+
061231 170  0.4-  0.4-    070315 704  0.6+  0.5+    070507 J76  0.1+  0.2+
061231 673  0.5+  0.3+    070315 703  0.4-  0.0     070507 J76  0.0   0.0
061231 673  0.6+  0.1+    070315 704  0.4+  0.9-    070508 D88  0.3+  0.3+
061231 673  0.6+  0.1-    070315 703  0.6-  0.0     070508 D88  0.3+  0.1+
061231 673  0.7+  0.2-    070315 703  1.1-  0.0     070508 D88  0.3+  0.6+
070102 644  0.1-  0.1-    070315 704  0.3-  0.4+    070508 J78  0.1-  0.3+
070102 644  0.2+  0.0     070315 704 (3.2-  0.8+)   070508 J78  0.4+  0.2+
070102 644  0.2-  0.3-    070315 704  1.5+  0.5+    070508 J70  0.4+  1.6-
070106 213  0.4+  0.6+    070315 704  0.1+  0.3-    070508 J70  0.4-  1.0-
070106 213  0.7+  0.8+    070315 704  0.5+  1.0-    070508 J70 (0.9+  2.6-)
070106 213  0.9+  0.5+    070315 704  0.0   0.6+    070508 J78  1.2+  0.3-
070112 349  0.5+  0.7+    070315 704  1.6-  0.5+    070508 J70  0.0   1.5-
070112 349  0.4+  0.7+    070315 235  0.1-  0.2-    070510 619  0.3-  0.1-
070112 349  0.3+  0.8+    070316 H47  0.1-  1.0+    070510 A03  0.2-  0.2+
070113 J76  0.2+  0.2+    070316 H47  0.1+  0.2+    070510 A03  0.2+  0.2-
070113 J76  0.0   0.1-    070317 H47  0.1+  0.1+    070510 A03  0.3+  0.1-
070113 J76  0.1+  0.1+    070317 H47  0.2+  0.3-    070510 213  0.3-  0.2+
070116 561  0.6+  0.1+    070317 939  0.0   0.4+    070510 J78  0.5+  0.5-
070116 561  0.4+  0.1+    070317 939  0.1-  0.5+    070510 213  0.7+  0.5-
070116 561  0.7+  0.0     070317 939  0.1-  0.5+    070510 213  1.1+  0.7+
070116 704  1.2+  0.6+    070317 232  0.1-  0.5-    070510 J78  0.2+  0.3+
070116 704  1.2+  0.8-    070317 232  0.5-  0.1+    070510 J78  0.1-  0.3+
070116 704 (2.2+  0.3-)   070317 232  0.6-  0.1+    070511 415  0.0   0.2+
070116 704  0.2+  0.5-    070317 A01  0.0   0.0     070511 415  0.5-  0.3-
070116 704  0.3+  1.7-    070317 A01  0.0   0.1-    070511 J78  0.4-  0.3+
070117 G96  0.0   0.5-    070318 A01  0.4+  0.5+    070511 J78  0.1+  0.1+
070117 G96  0.3+  0.4-    070318 704 (2.6+  1.5+)   070511 J78  0.1+  0.1+
070117 G96  0.0   0.8-    070318 704  0.6-  0.2-    070511 J53  0.0   0.2-
070117 G96  0.1+  0.3-    070318 704  0.9-  0.1+    070511 J53  0.2+  0.0
070120 J70  1.2+  0.8+    070318 704  0.1-  0.8+    070511 J53  0.5+  0.1-
070120 232  0.8-  0.3-    070318 213  0.1-  0.0     070512 415  0.1-  0.1-
070120 232  1.0-  0.0     070318 213  0.5-  0.0     070512 415  0.6-  0.2+
070120 232  0.9-  0.1-    070318 213  0.2-  0.1-    070512 J67  0.4-  0.3+
070120 J76  0.3-  0.0     070318 J53  0.5-  0.3+    070512 J67  0.5-  0.0
070120 J76  0.4+  0.1-    070318 J53  0.3-  0.0     070512 J67  0.6-  0.2-
070120 J76  0.3+  0.1+    070318 J53  0.1-  0.1-    070513 H47  0.1-  0.5+
070123 A32  0.5+  0.1+    070321 703  0.7-  0.8+    070513 H47  0.0   0.3+
070123 A32  0.2+  0.1+    070321 703  0.7-  0.3-    070515 D88  0.5-  0.2-
070123 A32  0.1-  0.0     070321 703  0.6-  0.8+    070515 D88  0.9-  0.3-
070123 704  1.6+  0.7+    070321 703  0.6-  0.2-    070515 D88  0.5-  0.3-
070123 704  0.7-  0.7+    070321 704  1.7+  0.2+    070518 B26 (3.3+  3.6-)
070123 704 (2.1-  1.3+)   070321 704  1.9+  0.2+    070519 349  0.4-  0.5-
070123 699  0.6-  0.4+    070321 704  0.5+  0.4+    070519 349  0.6-  0.4-
070123 704  0.4-  1.8-    070321 704  0.9+  0.1+    070519 349  0.4-  0.4-
070123 699  0.7-  0.4+    070321 704  1.2-  0.2-    070519 215  0.3-  0.3-
070123 699  1.1-  0.9+    070321 704  1.2+  0.4+    070519 215  0.5-  0.4-
070123 699  0.7-  0.1+    070321 704 (2.2+  1.2+)   070519 215  0.5-  0.1-
070123 322  0.5+  0.5-    070321 704  0.2+  1.8-    070520 H47  0.4+  0.1+
070123 322  0.1-  0.3-    070321 704  1.4-  1.0-    070520 H47  0.1+  0.3+
070123 322  0.2+  0.4-    070322 J70 (2.3+  2.3+)   070520 432  0.1+  0.1-
070127 850  0.1-  0.0     070322 J70 (0.6+  2.7-)   070520 432  0.1+  0.5-
070127 850  0.6-  0.1+    070322 J70 (0.4-  2.4+)   070521 H47  0.3-  0.0
070127 850  0.0   0.1+    070322 J70 (0.0   2.5+)   070521 H47  0.0   0.6+
070127 850  0.2-  0.2-    070324 844  0.8+  0.3+    070521 432  0.2+  0.1-
070128 939  0.4-  0.1+    070324 844  0.7+  0.2-    070521 432  0.8+  0.2-
070128 939  0.3-  0.1-    070324 844  0.1+  0.7-    070523 J76 (2.6+  0.2+)
070128 939  0.0   0.2-    070324 844  0.2-  0.2-    070523 J76  1.1+  0.5+
070128 213  0.6+  0.2-    070325 B30  0.1-  1.2+    070523 J76  0.1+  0.4+
070128 213  0.4+  0.2-    070325 B30  0.5-  0.1+    070528 J70  0.2+  0.9-
070128 213  0.3+  0.2-    070325 B30  1.6+  0.4+    070528 J70  0.7-  1.0-
070128 147  0.2-  0.4-    070325 B30  0.4+  0.0     070528 J70  0.5+  0.3-
070128 147  0.0   0.2-    070325 B30  0.2-  0.6-    070528 J78  1.2+  0.3-
070128 232  0.1+  0.1+    070326 B30  0.8+  0.3-    070528 J78  0.2+  0.5+
070128 232  0.2-  0.5+    070326 B30  0.2+  0.0     070528 J78  0.9+  1.6+
070128 232  0.7-  0.4+    070326 B30  0.2+  0.0     070530 J67  0.2-  0.6-
070128 203  0.8-  0.6-    070326 B30  0.1+  0.2+    070530 J67  0.5-  0.1+
070129 203  0.7-  0.8+    070326 B30  0.1+  0.4+    070530 J67  0.7-  0.2+
070131 850  0.2-  0.0     070404 D88  0.5+  0.6+    070604 J78  0.9+  0.6+
070131 850  0.4-  0.5+    070404 D88  0.5+  0.2+    070604 J78  1.6+  0.4-
070201 349  0.2+  0.4+    070404 D88  0.4+  0.5+    070604 J78  0.2-  1.4+
070201 349  0.3+  0.6+    070406 213  0.4-  0.2-    070604 808  0.5-  0.6+
070201 349  0.3+  0.6+    070406 442  0.4-  0.2+    070604 808  0.1+  0.0
070208 691  0.6-  0.3-    070406 213  0.4-  0.3-    070604 808  0.1+  0.1-
070208 691  0.5-  0.3-    070406 442  1.4+  0.6-    070604 808  1.1-  0.2+
070208 691  0.6-  0.1-    070406 213  0.6+  0.4+    070604 808  0.3-  0.6-
070210 213  0.3-  0.2-    070406 B30  0.0   0.3-    070606 415  0.0   0.6-
070210 213  0.0   0.4-    070406 B30  0.4-  0.2-    070606 415  0.0   0.5-
070210 703  0.1-  0.3+    070406 B30  0.1-  0.2+    070610 J70 (2.7+  1.0-)
070210 703  0.0   0.5-    070406 B30  0.8-  0.2-    070610 J70 (2.4+  2.0-)
070210 703  0.5-  0.5-    070406 B30  0.3-  0.0     070610 J70 (3.3+  1.2-)
070210 703  0.1-  0.2+    070406 232  0.2+  0.2+    070611 J67  0.7-  0.5-
070213 704  1.7+  0.2+    070406 232  0.1-  0.0     070611 J67  0.2-  0.0
070213 704  0.6+  1.0-    070406 232  0.1-  0.2+    070611 J67  0.3-  0.2-
070213 704  0.7+  1.6-    070406 A24  0.6-  0.2-    070613 J76  0.3-  0.4-
070213 704  0.4+  0.6-    070406 A24  0.5-  0.2-    070613 J76  0.7-  0.5+
070213 704  1.8-  0.7-    070406 A24  0.3-  0.2+    070613 J76  0.0   0.4+
070215 644  0.1-  0.0     070407 A24  0.6-  0.1-    070614 E12  0.0   0.0
070215 644  0.5-  0.2-    070407 A18  0.1-  0.0     070614 E12  0.1+  0.2-
070215 644  0.1-  0.2-    070408 A24  0.5+  0.4+    070614 E12  0.0   0.1-
070216 204  0.1+  0.1-    070408 A24  0.5-  0.4+    070623 415  0.8-  0.3+
070216 204  0.0   0.3-    070408 A24  0.1+  0.6+    070623 415  0.6-  0.4+
070216 644  0.0   0.1-    070408 A24  0.2-  0.5+    071229 415  0.6-  0.4+
070216 644  0.0   0.3-    070408 A24  0.2-  0.6+    071229 415  1.6-  0.2+
070216 644  0.2-  0.0     070408 A24  0.1-  0.1+    080320 467  0.5+  0.3+
070216 467  0.2-  0.2-    070409 224  0.8+  0.0     080320 467  0.2+  0.2+
070216 467  0.3+  0.1-    070409 224  1.4+  0.9+    080320 467  0.5+  0.4+
070216 467  0.4+  0.1-    070409 224 (0.9+  3.1+)   080320 467  0.3+  0.4+
070217 703  0.8-  1.5-    070409 A24  0.1-  0.1+
070217 703  2.0-  0.9-    070409 A24  0.1-  0.3+

